owner,sensor,date,latitude,longitude,vertical_datum,sea_water_practical_salinity,qcFlag 
TABS,ioos:station:wmo:42044:1,2011-05-01T00:00:00Z,26.1914,-97.0507,2.0,30.61,11111222 
TABS,ioos:station:wmo:42044:1,2011-05-01T00:30:00Z,26.1914,-97.0507,2.0,30.65,11111222 
TABS,ioos:station:wmo:42044:1,2011-05-01T01:00:00Z,26.1914,-97.0507,2.0,30.58,11111222 
TABS,ioos:station:wmo:42044:1,2011-05-01T01:30:00Z,26.1914,-97.0507,2.0,30.61,11111222 
TABS,ioos:station:wmo:42044:1,2011-05-01T02:00:00Z,26.1914,-97.0507,2.0,30.61,11111222 
TABS,ioos:station:wmo:42044:1,2011-05-01T02:30:00Z,26.1914,-97.0507,2.0,30.61,11111222 
TABS,ioos:station:wmo:42044:1,2011-05-01T03:00:00Z,26.1914,-97.0507,2.0,30.59,11111222 
TABS,ioos:station:wmo:42044:1,2011-05-01T03:30:00Z,26.1914,-97.0507,2.0,30.51,11111222 
TABS,ioos:station:wmo:42044:1,2011-05-01T04:00:00Z,26.1914,-97.0507,2.0,30.63,11111222 
TABS,ioos:station:wmo:42044:1,2011-05-01T04:30:00Z,26.1914,-97.0507,2.0,30.65,11111222 
TABS,ioos:station:wmo:42044:1,2011-05-01T05:00:00Z,26.1914,-97.0507,2.0,30.33,11111222 
TABS,ioos:station:wmo:42044:1,2011-05-01T05:30:00Z,26.1914,-97.0507,2.0,30.16,11111222 
TABS,ioos:station:wmo:42044:1,2011-05-01T06:00:00Z,26.1914,-97.0507,2.0,30.14,11111222 
TABS,ioos:station:wmo:42044:1,2011-05-01T06:30:00Z,26.1914,-97.0507,2.0,30.42,11111222 
TABS,ioos:station:wmo:42044:1,2011-05-01T07:00:00Z,26.1914,-97.0507,2.0,30.22,11111222 
TABS,ioos:station:wmo:42044:1,2011-05-01T07:30:00Z,26.1914,-97.0507,2.0,30.57,11111222 
TABS,ioos:station:wmo:42044:1,2011-05-01T08:00:00Z,26.1914,-97.0507,2.0,30.54,11111222 
TABS,ioos:station:wmo:42044:1,2011-05-01T08:30:00Z,26.1914,-97.0507,2.0,30.52,11111222 
TABS,ioos:station:wmo:42044:1,2011-05-01T09:00:00Z,26.1914,-97.0507,2.0,30.55,11111222 
TABS,ioos:station:wmo:42044:1,2011-05-01T09:30:00Z,26.1914,-97.0507,2.0,30.54,11111222 
TABS,ioos:station:wmo:42044:1,2011-05-01T10:00:00Z,26.1914,-97.0507,2.0,30.59,11111222 
TABS,ioos:station:wmo:42044:1,2011-05-01T10:30:00Z,26.1914,-97.0507,2.0,30.44,11111222 
TABS,ioos:station:wmo:42044:1,2011-05-01T11:00:00Z,26.1914,-97.0507,2.0,30.45,11111222 
TABS,ioos:station:wmo:42044:1,2011-05-01T11:30:00Z,26.1914,-97.0507,2.0,30.26,11111222 
TABS,ioos:station:wmo:42044:1,2011-05-01T12:00:00Z,26.1914,-97.0507,2.0,30.4,11111222 
TABS,ioos:station:wmo:42044:1,2011-05-01T12:30:00Z,26.1914,-97.0507,2.0,30.22,11111222 
TABS,ioos:station:wmo:42044:1,2011-05-01T13:00:00Z,26.1914,-97.0507,2.0,30.42,11111222 
TABS,ioos:station:wmo:42044:1,2011-05-01T13:30:00Z,26.1914,-97.0507,2.0,30.41,11111222 
TABS,ioos:station:wmo:42044:1,2011-05-01T14:00:00Z,26.1914,-97.0507,2.0,30.56,11111222 
TABS,ioos:station:wmo:42044:1,2011-05-01T14:30:00Z,26.1914,-97.0507,2.0,30.55,11111222 
TABS,ioos:station:wmo:42044:1,2011-05-01T15:00:00Z,26.1914,-97.0507,2.0,30.59,11111222 
TABS,ioos:station:wmo:42044:1,2011-05-01T15:30:00Z,26.1914,-97.0507,2.0,30.55,11111222 
TABS,ioos:station:wmo:42044:1,2011-05-01T16:00:00Z,26.1914,-97.0507,2.0,30.42,11111222 
TABS,ioos:station:wmo:42044:1,2011-05-01T16:30:00Z,26.1914,-97.0507,2.0,30.41,11111222 
TABS,ioos:station:wmo:42044:1,2011-05-01T17:00:00Z,26.1914,-97.0507,2.0,30.39,11111222 
TABS,ioos:station:wmo:42044:1,2011-05-01T17:30:00Z,26.1914,-97.0507,2.0,30.55,11111222 
TABS,ioos:station:wmo:42044:1,2011-05-01T18:00:00Z,26.1914,-97.0507,2.0,30.55,11111222 
TABS,ioos:station:wmo:42044:1,2011-05-01T18:30:00Z,26.1914,-97.0507,2.0,30.5,11111222 
TABS,ioos:station:wmo:42044:1,2011-05-01T19:00:00Z,26.1914,-97.0507,2.0,30.52,11111222 
TABS,ioos:station:wmo:42044:1,2011-05-01T19:30:00Z,26.1914,-97.0507,2.0,30.53,11111222 
TABS,ioos:station:wmo:42044:1,2011-05-01T20:00:00Z,26.1914,-97.0507,2.0,30.48,11111222 
TABS,ioos:station:wmo:42044:1,2011-05-01T20:30:00Z,26.1914,-97.0507,2.0,30.49,11111222 
TABS,ioos:station:wmo:42044:1,2011-05-01T21:00:00Z,26.1914,-97.0507,2.0,30.52,11111222 
TABS,ioos:station:wmo:42044:1,2011-05-01T21:30:00Z,26.1914,-97.0507,2.0,30.26,11111222 
TABS,ioos:station:wmo:42044:1,2011-05-01T22:00:00Z,26.1914,-97.0507,2.0,30.62,11111222 
TABS,ioos:station:wmo:42044:1,2011-05-01T22:30:00Z,26.1914,-97.0507,2.0,30.32,11111222 
TABS,ioos:station:wmo:42044:1,2011-05-01T23:00:00Z,26.1914,-97.0507,2.0,30.49,11111222 
TABS,ioos:station:wmo:42044:1,2011-05-01T23:30:00Z,26.1914,-97.0507,2.0,30.3,11111222 
TABS,ioos:station:wmo:42044:1,2011-05-02T00:00:00Z,26.1914,-97.0507,2.0,30.59,11111222 
TABS,ioos:station:wmo:42044:1,2011-05-02T00:30:00Z,26.1914,-97.0507,2.0,30.49,11111222 
TABS,ioos:station:wmo:42044:1,2011-05-02T01:00:00Z,26.1914,-97.0507,2.0,30.49,11111222 
TABS,ioos:station:wmo:42044:1,2011-05-02T01:30:00Z,26.1914,-97.0507,2.0,30.31,11111222 
TABS,ioos:station:wmo:42044:1,2011-05-02T02:00:00Z,26.1914,-97.0507,2.0,30.44,11111222 
TABS,ioos:station:wmo:42044:1,2011-05-02T02:30:00Z,26.1914,-97.0507,2.0,30.45,11111222 
TABS,ioos:station:wmo:42044:1,2011-05-02T03:00:00Z,26.1914,-97.0507,2.0,30.43,11111222 
TABS,ioos:station:wmo:42044:1,2011-05-02T03:30:00Z,26.1914,-97.0507,2.0,30.46,11111222 
TABS,ioos:station:wmo:42044:1,2011-05-02T04:00:00Z,26.1914,-97.0507,2.0,30.38,11111222 
TABS,ioos:station:wmo:42044:1,2011-05-02T04:30:00Z,26.1914,-97.0507,2.0,30.39,11111222 
TABS,ioos:station:wmo:42044:1,2011-05-02T05:00:00Z,26.1914,-97.0507,2.0,30.32,11111222 
TABS,ioos:station:wmo:42044:1,2011-05-02T05:30:00Z,26.1914,-97.0507,2.0,30.35,11111222 
TABS,ioos:station:wmo:42044:1,2011-05-02T06:00:00Z,26.1914,-97.0507,2.0,30.4,11111222 
TABS,ioos:station:wmo:42044:1,2011-05-02T06:30:00Z,26.1914,-97.0507,2.0,30.43,11111222 
TABS,ioos:station:wmo:42044:1,2011-05-02T07:00:00Z,26.1914,-97.0507,2.0,30.37,11111222 
TABS,ioos:station:wmo:42044:1,2011-05-02T07:30:00Z,26.1914,-97.0507,2.0,30.32,11111222 
TABS,ioos:station:wmo:42044:1,2011-05-02T08:00:00Z,26.1914,-97.0507,2.0,30.23,11111222 
TABS,ioos:station:wmo:42044:1,2011-05-02T08:30:00Z,26.1914,-97.0507,2.0,30.21,11111222 
TABS,ioos:station:wmo:42044:1,2011-05-02T09:00:00Z,26.1914,-97.0507,2.0,30.28,11111222 
TABS,ioos:station:wmo:42044:1,2011-05-02T09:30:00Z,26.1914,-97.0507,2.0,30.44,11111222 
TABS,ioos:station:wmo:42044:1,2011-05-02T10:00:00Z,26.1914,-97.0507,2.0,30.48,11111222 
TABS,ioos:station:wmo:42044:1,2011-05-02T10:30:00Z,26.1914,-97.0507,2.0,30.28,11111222 
TABS,ioos:station:wmo:42044:1,2011-05-02T11:00:00Z,26.1914,-97.0507,2.0,29.9,11111222 
TABS,ioos:station:wmo:42044:1,2011-05-02T11:30:00Z,26.1914,-97.0507,2.0,30.16,11111222 
TABS,ioos:station:wmo:42044:1,2011-05-02T12:00:00Z,26.1914,-97.0507,2.0,30.25,11111222 
TABS,ioos:station:wmo:42044:1,2011-05-02T12:30:00Z,26.1914,-97.0507,2.0,30.27,11111222 
TABS,ioos:station:wmo:42044:1,2011-05-02T13:00:00Z,26.1914,-97.0507,2.0,30.22,11111222 
TABS,ioos:station:wmo:42044:1,2011-05-02T13:30:00Z,26.1914,-97.0507,2.0,30.17,11111222 
TABS,ioos:station:wmo:42044:1,2011-05-02T14:00:00Z,26.1914,-97.0507,2.0,30.21,11111222 
TABS,ioos:station:wmo:42044:1,2011-05-02T14:30:00Z,26.1914,-97.0507,2.0,30.19,11111222 
TABS,ioos:station:wmo:42044:1,2011-05-02T15:00:00Z,26.1914,-97.0507,2.0,30.14,11111222 
TABS,ioos:station:wmo:42044:1,2011-05-02T15:30:00Z,26.1914,-97.0507,2.0,30.05,11111222 
TABS,ioos:station:wmo:42044:1,2011-05-02T16:00:00Z,26.1914,-97.0507,2.0,30.12,11111222 
TABS,ioos:station:wmo:42044:1,2011-05-02T16:30:00Z,26.1914,-97.0507,2.0,30.14,11111222 
TABS,ioos:station:wmo:42044:1,2011-05-02T17:00:00Z,26.1914,-97.0507,2.0,30.16,11111222 
TABS,ioos:station:wmo:42044:1,2011-05-02T17:30:00Z,26.1914,-97.0507,2.0,30.01,11111222 
TABS,ioos:station:wmo:42044:1,2011-05-02T18:00:00Z,26.1914,-97.0507,2.0,30.05,11111222 
TABS,ioos:station:wmo:42044:1,2011-05-02T18:30:00Z,26.1914,-97.0507,2.0,30.1,11111222 
TABS,ioos:station:wmo:42044:1,2011-05-02T19:00:00Z,26.1914,-97.0507,2.0,30.02,11111222 
TABS,ioos:station:wmo:42044:1,2011-05-02T19:30:00Z,26.1914,-97.0507,2.0,30.15,11111222 
TABS,ioos:station:wmo:42044:1,2011-05-02T20:00:00Z,26.1914,-97.0507,2.0,30.22,11111222 
TABS,ioos:station:wmo:42044:1,2011-05-02T20:30:00Z,26.1914,-97.0507,2.0,30.19,11111222 
TABS,ioos:station:wmo:42044:1,2011-05-02T21:00:00Z,26.1914,-97.0507,2.0,30.09,11111222 
TABS,ioos:station:wmo:42044:1,2011-05-02T21:30:00Z,26.1914,-97.0507,2.0,30.01,11111222 
TABS,ioos:station:wmo:42044:1,2011-05-02T22:00:00Z,26.1914,-97.0507,2.0,29.73,11111222 
TABS,ioos:station:wmo:42044:1,2011-05-02T22:30:00Z,26.1914,-97.0507,2.0,29.43,11111222 
TABS,ioos:station:wmo:42044:1,2011-05-02T23:00:00Z,26.1914,-97.0507,2.0,29.57,11111222 
TABS,ioos:station:wmo:42044:1,2011-05-02T23:30:00Z,26.1914,-97.0507,2.0,29.47,11111222 
TABS,ioos:station:wmo:42044:1,2011-05-03T00:00:00Z,26.1914,-97.0507,2.0,29.52,11111222 
TABS,ioos:station:wmo:42044:1,2011-05-03T00:30:00Z,26.1914,-97.0507,2.0,29.55,11111222 
TABS,ioos:station:wmo:42044:1,2011-05-03T01:00:00Z,26.1914,-97.0507,2.0,29.8,11111222 
TABS,ioos:station:wmo:42044:1,2011-05-03T01:30:00Z,26.1914,-97.0507,2.0,29.87,11111222 
TABS,ioos:station:wmo:42044:1,2011-05-03T02:00:00Z,26.1914,-97.0507,2.0,29.96,11111222 
TABS,ioos:station:wmo:42044:1,2011-05-03T02:30:00Z,26.1914,-97.0507,2.0,29.96,11111222 
TABS,ioos:station:wmo:42044:1,2011-05-03T03:00:00Z,26.1914,-97.0507,2.0,29.25,11111222 
TABS,ioos:station:wmo:42044:1,2011-05-03T03:30:00Z,26.1914,-97.0507,2.0,28.86,11111222 
TABS,ioos:station:wmo:42044:1,2011-05-03T04:00:00Z,26.1914,-97.0507,2.0,29.11,11111222 
TABS,ioos:station:wmo:42044:1,2011-05-03T04:30:00Z,26.1914,-97.0507,2.0,29.04,11111222 
TABS,ioos:station:wmo:42044:1,2011-05-03T05:00:00Z,26.1914,-97.0507,2.0,29.14,11111222 
TABS,ioos:station:wmo:42044:1,2011-05-03T05:30:00Z,26.1914,-97.0507,2.0,29.04,11111222 
TABS,ioos:station:wmo:42044:1,2011-05-03T06:00:00Z,26.1914,-97.0507,2.0,29.05,11111222 
TABS,ioos:station:wmo:42044:1,2011-05-03T06:30:00Z,26.1914,-97.0507,2.0,29.08,11111222 
TABS,ioos:station:wmo:42044:1,2011-05-03T07:00:00Z,26.1914,-97.0507,2.0,28.95,11111222 
TABS,ioos:station:wmo:42044:1,2011-05-03T08:30:00Z,26.1914,-97.0507,2.0,28.77,11111222 
TABS,ioos:station:wmo:42044:1,2011-05-03T09:00:00Z,26.1914,-97.0507,2.0,28.44,11111222 
TABS,ioos:station:wmo:42044:1,2011-05-03T09:30:00Z,26.1914,-97.0507,2.0,28.28,11111222 
TABS,ioos:station:wmo:42044:1,2011-05-03T10:00:00Z,26.1914,-97.0507,2.0,28.22,11111222 
TABS,ioos:station:wmo:42044:1,2011-05-03T10:30:00Z,26.1914,-97.0507,2.0,28.28,11111222 
TABS,ioos:station:wmo:42044:1,2011-05-03T11:00:00Z,26.1914,-97.0507,2.0,28.23,11111222 
TABS,ioos:station:wmo:42044:1,2011-05-03T11:30:00Z,26.1914,-97.0507,2.0,27.91,11111222 
TABS,ioos:station:wmo:42044:1,2011-05-03T12:00:00Z,26.1914,-97.0507,2.0,27.89,11111222 
TABS,ioos:station:wmo:42044:1,2011-05-03T12:30:00Z,26.1914,-97.0507,2.0,27.89,11111222 
TABS,ioos:station:wmo:42044:1,2011-05-03T13:00:00Z,26.1914,-97.0507,2.0,27.89,11111222 
TABS,ioos:station:wmo:42044:1,2011-05-03T13:30:00Z,26.1914,-97.0507,2.0,27.93,11111222 
TABS,ioos:station:wmo:42044:1,2011-05-03T14:00:00Z,26.1914,-97.0507,2.0,27.9,11111222 
TABS,ioos:station:wmo:42044:1,2011-05-03T14:30:00Z,26.1914,-97.0507,2.0,27.94,11111222 
TABS,ioos:station:wmo:42044:1,2011-05-03T15:00:00Z,26.1914,-97.0507,2.0,27.57,11111222 
TABS,ioos:station:wmo:42044:1,2011-05-03T15:30:00Z,26.1914,-97.0507,2.0,27.66,11111222 
TABS,ioos:station:wmo:42044:1,2011-05-03T16:00:00Z,26.1914,-97.0507,2.0,27.41,11111222 
TABS,ioos:station:wmo:42044:1,2011-05-03T16:30:00Z,26.1914,-97.0507,2.0,27.75,11111222 
TABS,ioos:station:wmo:42044:1,2011-05-03T17:00:00Z,26.1914,-97.0507,2.0,27.59,11111222 
TABS,ioos:station:wmo:42044:1,2011-05-03T17:30:00Z,26.1914,-97.0507,2.0,27.47,11111222 
TABS,ioos:station:wmo:42044:1,2011-05-03T18:00:00Z,26.1914,-97.0507,2.0,27.61,11111222 
TABS,ioos:station:wmo:42044:1,2011-05-03T18:30:00Z,26.1914,-97.0507,2.0,27.6,11111222 
TABS,ioos:station:wmo:42044:1,2011-05-03T19:00:00Z,26.1914,-97.0507,2.0,27.57,11111222 
TABS,ioos:station:wmo:42044:1,2011-05-03T19:30:00Z,26.1914,-97.0507,2.0,27.57,11111222 
TABS,ioos:station:wmo:42044:1,2011-05-03T20:00:00Z,26.1914,-97.0507,2.0,27.57,11111222 
TABS,ioos:station:wmo:42044:1,2011-05-03T20:30:00Z,26.1914,-97.0507,2.0,27.55,11111222 
TABS,ioos:station:wmo:42044:1,2011-05-03T21:00:00Z,26.1914,-97.0507,2.0,27.48,11111222 
TABS,ioos:station:wmo:42044:1,2011-05-03T21:30:00Z,26.1914,-97.0507,2.0,27.57,11111222 
TABS,ioos:station:wmo:42044:1,2011-05-03T22:00:00Z,26.1914,-97.0507,2.0,27.45,11111222 
TABS,ioos:station:wmo:42044:1,2011-05-03T22:30:00Z,26.1914,-97.0507,2.0,27.46,11111222 
TABS,ioos:station:wmo:42044:1,2011-05-03T23:00:00Z,26.1914,-97.0507,2.0,27.5,11111222 
TABS,ioos:station:wmo:42044:1,2011-05-03T23:30:00Z,26.1914,-97.0507,2.0,27.57,11111222 
TABS,ioos:station:wmo:42044:1,2011-05-04T00:00:00Z,26.1914,-97.0507,2.0,27.63,11111222 
TABS,ioos:station:wmo:42044:1,2011-05-04T00:30:00Z,26.1914,-97.0507,2.0,27.55,11111222 
TABS,ioos:station:wmo:42044:1,2011-05-04T01:00:00Z,26.1914,-97.0507,2.0,27.59,11111222 
TABS,ioos:station:wmo:42044:1,2011-05-04T01:30:00Z,26.1914,-97.0507,2.0,27.54,11111222 
TABS,ioos:station:wmo:42044:1,2011-05-04T02:30:00Z,26.1914,-97.0507,2.0,27.43,11111222 
TABS,ioos:station:wmo:42044:1,2011-05-04T03:00:00Z,26.1914,-97.0507,2.0,27.24,11111222 
TABS,ioos:station:wmo:42044:1,2011-05-04T03:30:00Z,26.1914,-97.0507,2.0,27.39,11111222 
TABS,ioos:station:wmo:42044:1,2011-05-04T04:00:00Z,26.1914,-97.0507,2.0,27.06,11111222 
TABS,ioos:station:wmo:42044:1,2011-05-04T04:30:00Z,26.1914,-97.0507,2.0,27.17,11111222 
TABS,ioos:station:wmo:42044:1,2011-05-04T05:00:00Z,26.1914,-97.0507,2.0,27.05,11111222 
TABS,ioos:station:wmo:42044:1,2011-05-04T05:30:00Z,26.1914,-97.0507,2.0,27.07,11111222 
TABS,ioos:station:wmo:42044:1,2011-05-04T06:00:00Z,26.1914,-97.0507,2.0,27.09,11111222 
TABS,ioos:station:wmo:42044:1,2011-05-04T06:30:00Z,26.1914,-97.0507,2.0,27.07,11111222 
TABS,ioos:station:wmo:42044:1,2011-05-04T07:00:00Z,26.1914,-97.0507,2.0,27.22,11111222 
TABS,ioos:station:wmo:42044:1,2011-05-04T07:30:00Z,26.1914,-97.0507,2.0,27.13,11111222 
TABS,ioos:station:wmo:42044:1,2011-05-04T08:00:00Z,26.1914,-97.0507,2.0,26.82,11111222 
TABS,ioos:station:wmo:42044:1,2011-05-04T08:30:00Z,26.1914,-97.0507,2.0,27.05,11111222 
TABS,ioos:station:wmo:42044:1,2011-05-04T09:00:00Z,26.1914,-97.0507,2.0,27.06,11111222 
TABS,ioos:station:wmo:42044:1,2011-05-04T09:30:00Z,26.1914,-97.0507,2.0,27.0,11111222 
TABS,ioos:station:wmo:42044:1,2011-05-04T10:00:00Z,26.1914,-97.0507,2.0,27.0,11111222 
TABS,ioos:station:wmo:42044:1,2011-05-04T10:30:00Z,26.1914,-97.0507,2.0,27.11,11111222 
TABS,ioos:station:wmo:42044:1,2011-05-04T11:00:00Z,26.1914,-97.0507,2.0,27.13,11111222 
TABS,ioos:station:wmo:42044:1,2011-05-04T11:30:00Z,26.1914,-97.0507,2.0,27.18,11111222 
TABS,ioos:station:wmo:42044:1,2011-05-04T12:00:00Z,26.1914,-97.0507,2.0,27.04,11111222 
TABS,ioos:station:wmo:42044:1,2011-05-04T12:30:00Z,26.1914,-97.0507,2.0,27.06,11111222 
TABS,ioos:station:wmo:42044:1,2011-05-04T13:00:00Z,26.1914,-97.0507,2.0,27.07,11111222 
TABS,ioos:station:wmo:42044:1,2011-05-04T13:30:00Z,26.1914,-97.0507,2.0,27.04,11111222 
TABS,ioos:station:wmo:42044:1,2011-05-04T14:00:00Z,26.1914,-97.0507,2.0,27.07,11111222 
TABS,ioos:station:wmo:42044:1,2011-05-04T14:30:00Z,26.1914,-97.0507,2.0,27.05,11111222 
TABS,ioos:station:wmo:42044:1,2011-05-04T15:00:00Z,26.1914,-97.0507,2.0,27.18,11111222 
TABS,ioos:station:wmo:42044:1,2011-05-04T15:30:00Z,26.1914,-97.0507,2.0,27.03,11111222 
TABS,ioos:station:wmo:42044:1,2011-05-04T16:00:00Z,26.1914,-97.0507,2.0,26.73,11111222 
TABS,ioos:station:wmo:42044:1,2011-05-04T16:30:00Z,26.1914,-97.0507,2.0,26.93,11111222 
TABS,ioos:station:wmo:42044:1,2011-05-04T17:00:00Z,26.1914,-97.0507,2.0,26.95,11111222 
TABS,ioos:station:wmo:42044:1,2011-05-04T17:30:00Z,26.1914,-97.0507,2.0,27.0,11111222 
TABS,ioos:station:wmo:42044:1,2011-05-04T18:00:00Z,26.1914,-97.0507,2.0,26.93,11111222 
TABS,ioos:station:wmo:42044:1,2011-05-04T18:30:00Z,26.1914,-97.0507,2.0,26.94,11111222 
TABS,ioos:station:wmo:42044:1,2011-05-04T19:00:00Z,26.1914,-97.0507,2.0,26.96,11111222 
TABS,ioos:station:wmo:42044:1,2011-05-04T19:30:00Z,26.1914,-97.0507,2.0,26.97,11111222 
TABS,ioos:station:wmo:42044:1,2011-05-04T20:00:00Z,26.1914,-97.0507,2.0,26.93,11111222 
TABS,ioos:station:wmo:42044:1,2011-05-04T20:30:00Z,26.1914,-97.0507,2.0,27.08,11111222 
TABS,ioos:station:wmo:42044:1,2011-05-04T21:00:00Z,26.1914,-97.0507,2.0,27.06,11111222 
TABS,ioos:station:wmo:42044:1,2011-05-04T21:30:00Z,26.1914,-97.0507,2.0,27.16,11111222 
TABS,ioos:station:wmo:42044:1,2011-05-04T22:00:00Z,26.1914,-97.0507,2.0,27.18,11111222 
TABS,ioos:station:wmo:42044:1,2011-05-04T22:30:00Z,26.1914,-97.0507,2.0,27.12,11111222 
TABS,ioos:station:wmo:42044:1,2011-05-04T23:00:00Z,26.1914,-97.0507,2.0,27.06,11111222 
TABS,ioos:station:wmo:42044:1,2011-05-04T23:30:00Z,26.1914,-97.0507,2.0,27.11,11111222 
TABS,ioos:station:wmo:42044:1,2011-05-05T00:00:00Z,26.1914,-97.0507,2.0,27.05,11111222 
TABS,ioos:station:wmo:42044:1,2011-05-05T00:30:00Z,26.1914,-97.0507,2.0,27.04,11111222 
TABS,ioos:station:wmo:42044:1,2011-05-05T01:00:00Z,26.1914,-97.0507,2.0,27.01,11111222 
TABS,ioos:station:wmo:42044:1,2011-05-05T01:30:00Z,26.1914,-97.0507,2.0,26.97,11111222 
TABS,ioos:station:wmo:42044:1,2011-05-05T02:00:00Z,26.1914,-97.0507,2.0,26.99,11111222 
TABS,ioos:station:wmo:42044:1,2011-05-05T02:30:00Z,26.1914,-97.0507,2.0,26.98,11111222 
TABS,ioos:station:wmo:42044:1,2011-05-05T03:00:00Z,26.1914,-97.0507,2.0,26.95,11111222 
TABS,ioos:station:wmo:42044:1,2011-05-05T03:30:00Z,26.1914,-97.0507,2.0,26.91,11111222 
TABS,ioos:station:wmo:42044:1,2011-05-05T04:00:00Z,26.1914,-97.0507,2.0,27.02,11111222 
TABS,ioos:station:wmo:42044:1,2011-05-05T04:30:00Z,26.1914,-97.0507,2.0,26.98,11111222 
TABS,ioos:station:wmo:42044:1,2011-05-05T05:00:00Z,26.1914,-97.0507,2.0,26.8,11111222 
TABS,ioos:station:wmo:42044:1,2011-05-05T05:30:00Z,26.1914,-97.0507,2.0,26.91,11111222 
TABS,ioos:station:wmo:42044:1,2011-05-05T06:00:00Z,26.1914,-97.0507,2.0,26.94,11111222 
TABS,ioos:station:wmo:42044:1,2011-05-05T06:30:00Z,26.1914,-97.0507,2.0,26.77,11111222 
TABS,ioos:station:wmo:42044:1,2011-05-05T07:00:00Z,26.1914,-97.0507,2.0,26.91,11111222 
TABS,ioos:station:wmo:42044:1,2011-05-05T07:30:00Z,26.1914,-97.0507,2.0,26.97,11111222 
TABS,ioos:station:wmo:42044:1,2011-05-05T08:00:00Z,26.1914,-97.0507,2.0,26.82,11111222 
TABS,ioos:station:wmo:42044:1,2011-05-05T08:30:00Z,26.1914,-97.0507,2.0,26.92,11111222 
TABS,ioos:station:wmo:42044:1,2011-05-05T09:00:00Z,26.1914,-97.0507,2.0,26.82,11111222 
TABS,ioos:station:wmo:42044:1,2011-05-05T09:30:00Z,26.1914,-97.0507,2.0,26.79,11111222 
TABS,ioos:station:wmo:42044:1,2011-05-05T10:00:00Z,26.1914,-97.0507,2.0,26.77,11111222 
TABS,ioos:station:wmo:42044:1,2011-05-05T10:30:00Z,26.1914,-97.0507,2.0,26.71,11111222 
TABS,ioos:station:wmo:42044:1,2011-05-05T11:00:00Z,26.1914,-97.0507,2.0,26.71,11111222 
TABS,ioos:station:wmo:42044:1,2011-05-05T11:30:00Z,26.1914,-97.0507,2.0,26.71,11111222 
TABS,ioos:station:wmo:42044:1,2011-05-05T12:00:00Z,26.1914,-97.0507,2.0,26.63,11111222 
TABS,ioos:station:wmo:42044:1,2011-05-05T12:30:00Z,26.1914,-97.0507,2.0,26.68,11111222 
TABS,ioos:station:wmo:42044:1,2011-05-05T13:00:00Z,26.1914,-97.0507,2.0,26.58,11111222 
TABS,ioos:station:wmo:42044:1,2011-05-05T13:30:00Z,26.1914,-97.0507,2.0,26.61,11111222 
TABS,ioos:station:wmo:42044:1,2011-05-05T14:00:00Z,26.1914,-97.0507,2.0,26.58,11111222 
TABS,ioos:station:wmo:42044:1,2011-05-05T14:30:00Z,26.1914,-97.0507,2.0,26.56,11111222 
TABS,ioos:station:wmo:42044:1,2011-05-05T15:00:00Z,26.1914,-97.0507,2.0,26.57,11111222 
TABS,ioos:station:wmo:42044:1,2011-05-05T15:30:00Z,26.1914,-97.0507,2.0,26.49,11111222 
TABS,ioos:station:wmo:42044:1,2011-05-05T16:00:00Z,26.1914,-97.0507,2.0,26.27,11111222 
TABS,ioos:station:wmo:42044:1,2011-05-05T16:30:00Z,26.1914,-97.0507,2.0,26.51,11111222 
TABS,ioos:station:wmo:42044:1,2011-05-05T17:00:00Z,26.1914,-97.0507,2.0,26.43,11111222 
TABS,ioos:station:wmo:42044:1,2011-05-05T17:30:00Z,26.1914,-97.0507,2.0,26.41,11111222 
TABS,ioos:station:wmo:42044:1,2011-05-05T18:00:00Z,26.1914,-97.0507,2.0,26.31,11111222 
TABS,ioos:station:wmo:42044:1,2011-05-05T18:30:00Z,26.1914,-97.0507,2.0,26.35,11111222 
TABS,ioos:station:wmo:42044:1,2011-05-05T19:00:00Z,26.1914,-97.0507,2.0,26.4,11111222 
TABS,ioos:station:wmo:42044:1,2011-05-05T19:30:00Z,26.1914,-97.0507,2.0,26.36,11111222 
TABS,ioos:station:wmo:42044:1,2011-05-05T20:00:00Z,26.1914,-97.0507,2.0,26.36,11111222 
TABS,ioos:station:wmo:42044:1,2011-05-05T20:30:00Z,26.1914,-97.0507,2.0,26.22,11111222 
TABS,ioos:station:wmo:42044:1,2011-05-05T21:00:00Z,26.1914,-97.0507,2.0,26.19,11111222 
TABS,ioos:station:wmo:42044:1,2011-05-05T21:30:00Z,26.1914,-97.0507,2.0,26.16,11111222 
TABS,ioos:station:wmo:42044:1,2011-05-05T22:00:00Z,26.1914,-97.0507,2.0,26.17,11111222 
TABS,ioos:station:wmo:42044:1,2011-05-05T22:30:00Z,26.1914,-97.0507,2.0,26.15,11111222 
TABS,ioos:station:wmo:42044:1,2011-05-05T23:00:00Z,26.1914,-97.0507,2.0,26.09,11111222 
TABS,ioos:station:wmo:42044:1,2011-05-05T23:30:00Z,26.1914,-97.0507,2.0,25.96,11111222 
TABS,ioos:station:wmo:42044:1,2011-05-06T00:00:00Z,26.1914,-97.0507,2.0,26.03,11111222 
TABS,ioos:station:wmo:42044:1,2011-05-06T00:30:00Z,26.1914,-97.0507,2.0,25.99,11111222 
TABS,ioos:station:wmo:42044:1,2011-05-06T01:00:00Z,26.1914,-97.0507,2.0,25.95,11111222 
TABS,ioos:station:wmo:42044:1,2011-05-06T01:30:00Z,26.1914,-97.0507,2.0,26.02,11111222 
TABS,ioos:station:wmo:42044:1,2011-05-06T02:00:00Z,26.1914,-97.0507,2.0,26.06,11111222 
TABS,ioos:station:wmo:42044:1,2011-05-06T02:30:00Z,26.1914,-97.0507,2.0,26.0,11111222 
TABS,ioos:station:wmo:42044:1,2011-05-06T03:00:00Z,26.1914,-97.0507,2.0,25.96,11111222 
TABS,ioos:station:wmo:42044:1,2011-05-06T03:30:00Z,26.1914,-97.0507,2.0,26.05,11111222 
TABS,ioos:station:wmo:42044:1,2011-05-06T04:00:00Z,26.1914,-97.0507,2.0,25.92,11111222 
TABS,ioos:station:wmo:42044:1,2011-05-06T04:30:00Z,26.1914,-97.0507,2.0,25.86,11111222 
TABS,ioos:station:wmo:42044:1,2011-05-06T05:00:00Z,26.1914,-97.0507,2.0,25.8,11111222 
TABS,ioos:station:wmo:42044:1,2011-05-06T05:30:00Z,26.1914,-97.0507,2.0,25.79,11111222 
TABS,ioos:station:wmo:42044:1,2011-05-06T06:00:00Z,26.1914,-97.0507,2.0,25.78,11111222 
TABS,ioos:station:wmo:42044:1,2011-05-06T06:30:00Z,26.1914,-97.0507,2.0,25.67,11111222 
TABS,ioos:station:wmo:42044:1,2011-05-06T07:00:00Z,26.1914,-97.0507,2.0,25.68,11111222 
TABS,ioos:station:wmo:42044:1,2011-05-06T07:30:00Z,26.1914,-97.0507,2.0,25.86,11111222 
TABS,ioos:station:wmo:42044:1,2011-05-06T08:00:00Z,26.1914,-97.0507,2.0,24.07,11111222 
TABS,ioos:station:wmo:42044:1,2011-05-06T08:30:00Z,26.1914,-97.0507,2.0,23.87,11111222 
TABS,ioos:station:wmo:42044:1,2011-05-06T09:00:00Z,26.1914,-97.0507,2.0,24.04,11111222 
TABS,ioos:station:wmo:42044:1,2011-05-06T09:30:00Z,26.1914,-97.0507,2.0,23.73,11111222 
TABS,ioos:station:wmo:42044:1,2011-05-06T10:00:00Z,26.1914,-97.0507,2.0,24.04,11111222 
TABS,ioos:station:wmo:42044:1,2011-05-06T10:30:00Z,26.1914,-97.0507,2.0,23.98,11111222 
TABS,ioos:station:wmo:42044:1,2011-05-06T11:00:00Z,26.1914,-97.0507,2.0,23.83,11111222 
TABS,ioos:station:wmo:42044:1,2011-05-06T11:30:00Z,26.1914,-97.0507,2.0,23.7,11111222 
TABS,ioos:station:wmo:42044:1,2011-05-06T12:00:00Z,26.1914,-97.0507,2.0,23.83,11111222 
TABS,ioos:station:wmo:42044:1,2011-05-06T12:30:00Z,26.1914,-97.0507,2.0,23.65,11111222 
TABS,ioos:station:wmo:42044:1,2011-05-06T13:00:00Z,26.1914,-97.0507,2.0,24.04,11111222 
TABS,ioos:station:wmo:42044:1,2011-05-06T13:30:00Z,26.1914,-97.0507,2.0,23.72,11111222 
TABS,ioos:station:wmo:42044:1,2011-05-06T14:00:00Z,26.1914,-97.0507,2.0,23.68,11111222 
TABS,ioos:station:wmo:42044:1,2011-05-06T14:30:00Z,26.1914,-97.0507,2.0,23.7,11111222 
TABS,ioos:station:wmo:42044:1,2011-05-06T15:00:00Z,26.1914,-97.0507,2.0,23.66,11111222 
TABS,ioos:station:wmo:42044:1,2011-05-06T15:30:00Z,26.1914,-97.0507,2.0,23.69,11111222 
TABS,ioos:station:wmo:42044:1,2011-05-06T16:00:00Z,26.1914,-97.0507,2.0,23.76,11111222 
TABS,ioos:station:wmo:42044:1,2011-05-06T16:30:00Z,26.1914,-97.0507,2.0,23.72,11111222 